Stations météo

Publicité
Fehmarn, Allemagne (10055): Température de l'air & dewpoint: 18.10.2018 00:00:00 - 24.10.2018 00:00:00 (CEST)Fehmarn, Allemagne (10055): Température de l'air 5cm & Température de l'air -5cm: 18.10.2018 00:00:00 - 24.10.2018 00:00:00 (CEST)Fehmarn, Allemagne (10055): Température de l'air -20cm & Température de l'air -100cm: 18.10.2018 00:00:00 - 24.10.2018 00:00:00 (CEST)Fehmarn, Allemagne (10055): Vitesse du vent & gusts: 18.10.2018 00:00:00 - 24.10.2018 00:00:00 (CEST)Fehmarn, Allemagne (10055): Direction du vent: 18.10.2018 00:00:00 - 24.10.2018 00:00:00 (CEST)Fehmarn, Allemagne (10055): reduced air pressure: 18.10.2018 00:00:00 - 24.10.2018 00:00:00 (CEST)Fehmarn, Allemagne (10055): visibility: 18.10.2018 00:00:00 - 24.10.2018 00:00:00 (CEST)Fehmarn, Allemagne (10055): Ensoleillement: 18.10.2018 00:00:00 - 24.10.2018 00:00:00 (CEST)Fehmarn, Allemagne (10055): Quantités de précipitations: 18.10.2018 00:00:00 - 24.10.2018 00:00:00 (CEST)
Date & Time tt [°C] td [°C] tt 5cm [°C] tt -5cm [°C] tt -20cm [°C] tt -100cm [°C] ff [km/h] ff [knt] fx [km/h] fx [knt] dd ppp [hPa] vv [km] sd [min] rr [mm]
24.10.2018 00:00:00 11,5 7,5 11,1 10,4 10,8 14,2 64 35 98 53 WNW 1007,8 17 0 0,0
23.10.2018 23:00:00 12,1 7,3 11,7 10,5 10,9 14,2 64 35 90 49 WNW 1007,3 17 0 0,0
23.10.2018 22:00:00 12,3 7,9 11,8 10,5 10,9 14,3 64 34 91 49 WNW 1006,8 18 0 0,0
23.10.2018 21:00:00 12,5 7,8 12,0 10,7 11,0 14,3 70 38 97 53 WNW 1006,4 21 0 0,0
23.10.2018 20:00:00 12,7 8,3 12,1 10,7 11,1 14,3 70 38 89 48 WNW 1006,2 23 0 0,0
23.10.2018 19:00:00 12,9 8,9 12,2 11,0 11,1 14,3 69 38 90 49 WNW 1006,2 24 0 0,0
23.10.2018 18:00:00 12,9 9,2 12,5 11,2 11,2 14,3 61 33 84 45 WNW 1005,6 27 0 0,0
23.10.2018 17:00:00 12,8 10,0 12,2 11,5 11,2 14,3 63 34 84 45 WNW 1005,2 19 1 0,1
23.10.2018 16:00:00 13,1 9,8 12,9 11,7 11,2 14,3 58 31 85 46 WNW 1005,4 21 0 0,0
23.10.2018 15:00:00 13,1 9,9 12,0 11,7 11,2 14,3 63 34 92 50 WNW 1006,0 14 0 0,0
23.10.2018 14:00:00 12,8 10,4 12,6 12,0 11,1 14,3 72 39 94 51 WNW 1006,5 17 1 0,0
23.10.2018 13:00:00 12,9 10,4 12,9 12,0 11,1 14,3 61 33 85 46 WNW 1006,9 14 4 0,2
23.10.2018 12:00:00 12,5 10,7 11,9 11,6 11,0 14,3 64 35 89 48 W 1007,1 13 0 0,1
23.10.2018 11:00:00 12,1 10,6 11,4 11,4 11,0 14,3 64 34 87 47 W 1007,6 11 0 0,2
23.10.2018 10:00:00 11,8 10,8 11,2 11,2 11,0 14,3 63 34 85 46 W 1008,6 11 0 0,2
23.10.2018 09:00:00 11,9 10,4 11,0 11,0 11,0 14,3 68 37 84 45 W 1009,3 13 0 0,2
23.10.2018 08:00:00 11,5 9,7 10,5 11,0 11,1 14,3 71 38 89 48 W 1009,8 11 0 1,2
23.10.2018 07:00:00 11,7 9,3 10,4 11,2 11,1 14,3 65 35 87 47 W 1011,4 4,8 0 0,5
23.10.2018 06:00:00 12,2 8,6 12,0 11,3 11,0 14,3 64 35 83 45 W 1012,7 22 0 0,0
23.10.2018 05:00:00 11,8 8,5 11,3 11,2 11,0 14,3 64 35 81 44 W 1014,1 21 0 0,0
23.10.2018 04:00:00 11,7 7,7 11,5 11,1 11,0 14,3 58 31 81 44 WSW 1016,2 31 0 0,0
23.10.2018 03:00:00 11,4 6,6 11,2 10,8 11,1 14,3 59 32 76 41 WSW 1018,5 32 0 0,0
23.10.2018 02:00:00 11,0 6,3 10,7 10,5 11,1 14,4 51 27 67 36 W 1020,5 34 0 0,0
23.10.2018 01:00:00 10,6 6,9 10,0 10,5 11,2 14,4 47 25 59 32 W 1022,5 33 0 0,0
23.10.2018 00:00:00 10,2 6,5 9,5 10,4 11,3 14,4 41 22 55 30 WSW 1024,0 38 0 0,0
22.10.2018 23:00:00 10,6 7,0 9,8 10,6 11,5 14,4 44 24 57 31 W 1025,5 36 0 0,0
22.10.2018 22:00:00 10,4 6,3 9,7 10,7 11,6 14,4 41 22 53 29 W 1026,2 38 0 0,0
22.10.2018 21:00:00 10,8 6,0 10,2 10,9 11,7 14,4 42 23 55 30 W 1026,7 36 0 0,0
22.10.2018 20:00:00 10,9 5,9 10,0 11,1 11,9 14,4 40 22 48 26 WNW 1027,0 37 0 0,0
22.10.2018 19:00:00 11,2 5,2 10,3 11,5 12,0 14,4 43 23 55 30 WNW 1027,4 41 0 0,0
22.10.2018 18:00:00 11,5 4,6 10,6 11,9 12,1 14,4 41 22 50 27 WNW 1027,7 40 32 0,0
22.10.2018 17:00:00 11,5 5,4 11,1 12,5 12,1 14,4 37 20 51 28 WNW 1027,8 21 56 0,0
22.10.2018 16:00:00 11,8 5,6 11,8 13,2 12,1 14,4 41 22 50 27 WNW 1028,2 11 53 0,0
22.10.2018 15:00:00 12,1 5,7 12,9 13,8 12,0 14,4 40 22 51 27 WNW 1027,9 14 58 0,0
22.10.2018 14:00:00 11,8 4,7 12,7 13,8 11,8 14,4 40 22 52 28 NW 1028,1 11 55 0,0
22.10.2018 13:00:00 11,7 4,8 12,8 13,4 11,8 14,4 38 21 57 31 NW 1027,9 13 55 0,0
22.10.2018 12:00:00 11,5 6,5 11,7 12,7 11,7 14,4 38 21 48 26 NW 1027,9 28 24 0,0
22.10.2018 11:00:00 11,9 6,2 13,0 12,6 11,6 14,4 39 21 49 27 NW 1027,5 17 59 0,0
22.10.2018 10:00:00 11,4 6,0 11,5 11,5 11,7 14,4 37 20 54 29 NW 1027,1 20 46 0,0
22.10.2018 09:00:00 11,6 8,2 10,9 11,3 11,8 14,4 37 20 46 25 NW 1026,0 36 0 0,0
22.10.2018 08:00:00 11,5 7,6 10,5 11,6 11,9 14,4 36 19 46 25 NNW 1025,3 44 0 0,0
22.10.2018 07:00:00 12,0 8,3 11,1 12,0 12,0 14,4 37 20 48 26 NNW 1024,4 61 0 0,0
22.10.2018 06:00:00 12,6 11,6 12,0 12,4 12,0 14,4 24 13 37 20 NW 1023,6 44 0 0,0
22.10.2018 05:00:00 12,2 11,4 11,8 12,5 12,1 14,5 30 16 45 25 WNW 1023,0 7 0 0,1
22.10.2018 04:00:00 12,3 10,9 12,1 12,6 12,1 14,5 32 17 40 21 WSW 1022,8 3,8 0 0,0
22.10.2018 03:00:00 12,2 10,9 11,7 12,6 12,1 14,5 27 14 45 24 WSW 1023,0 4,4 0 0,0
22.10.2018 02:00:00 13,4 10,0 13,2 12,8 12,2 14,5 24 13 35 19 WSW 1023,3 9 0 0,0
22.10.2018 01:00:00 13,2 10,2 12,8 12,7 12,2 14,5 23 12 37 20 SW 1023,5 9 0 0,0
22.10.2018 00:00:00 13,3 10,1 13,0 12,8 12,2 14,5 30 16 43 23 WSW 1024,0 11 0 0,0
21.10.2018 23:00:00 13,4 10,2 12,9 12,8 12,3 14,5 21 11 31 17 SW 1024,0 13 0 0,0
21.10.2018 22:00:00 13,5 10,4 13,0 13,0 12,3 14,5 19 10 31 17 SW 1024,3 13 0 0,0
21.10.2018 21:00:00 13,8 10,1 13,3 13,2 12,4 14,5 17 9 27 15 SSW 1024,5 13 0 0,0
21.10.2018 20:00:00 14,0 10,7 13,5 13,4 12,4 14,5 15 8 24 13 SSW 1024,7 8 0 0,0
21.10.2018 19:00:00 13,9 11,2 13,7 13,6 12,4 14,5 16 9 24 13 SW 1024,8 7 0 0,0
21.10.2018 18:00:00 13,9 11,4 13,7 14,0 12,4 14,5 13 7 22 12 SW 1024,9 7 0 0,0
21.10.2018 17:00:00 14,0 11,5 14,2 14,4 12,3 14,5 16 9 25 14 SW 1025,2 7 0 0,0
21.10.2018 16:00:00 14,3 11,5 15,2 14,7 12,1 14,5 16 9 26 14 SW 1025,6 7 0 0,0
21.10.2018 15:00:00 13,8 11,3 14,8 14,8 11,9 14,6 15 8 26 14 SW 1026,1 7 0 0,0
21.10.2018 14:00:00 13,7 11,3 15,7 15,1 11,7 14,6 15 8 29 16 SW 1026,5 9 2 0,0
21.10.2018 13:00:00 13,0 10,4 14,9 14,7 11,4 14,6 17 9 26 14 SW 1027,0 15 9 0,0
21.10.2018 12:00:00 12,6 10,3 14,3 14,0 11,1 14,6 16 9 24 13 SW 1027,5 25 35 0,0
21.10.2018 11:00:00 12,4 10,2 14,6 12,5 11,0 14,6 16 8 23 12 SW 1027,7 22 35 0,0
21.10.2018 10:00:00 11,5 10,0 12,1 11,2 10,9 14,6 9 5 16 8 SSW 1027,7 26 1 0,0
21.10.2018 09:00:00 10,4 8,9 10,0 10,5 10,9 14,6 8 4 14 7 S 1027,6 17 0 0,0
21.10.2018 08:00:00 9,9 8,8 9,2 10,2 11,0 14,6 8 5 13 7 S 1027,4 33 0 0,0
21.10.2018 07:00:00 9,8 8,7 7,8 9,9 11,2 14,6 9 5 15 8 SSW 1027,7 37 0 0,0
21.10.2018 06:00:00 10,1 8,7 8,5 9,9 11,3 14,6 10 6 14 8 SW 1027,9 42 0 0,0
21.10.2018 05:00:00 10,9 9,5 9,1 10,4 11,4 14,6 13 7 17 9 W 1027,9 24 0 0,0
21.10.2018 04:00:00 11,5 8,6 9,8 10,9 11,5 14,6 12 6 21 11 WNW 1027,8 52 0 0,0
21.10.2018 03:00:00 11,7 8,6 10,7 11,0 11,6 14,6 17 9 24 13 WNW 1027,9 44 0 0,0
21.10.2018 02:00:00 11,8 8,4 10,9 11,2 11,6 14,6 18 10 22 12 WNW 1028,2 47 0 0,0
21.10.2018 01:00:00 11,9 8,6 11,3 11,3 11,7 14,7 18 10 21 12 WNW 1028,3 46 0 0,0
21.10.2018 00:00:00 11,9 8,6 10,5 11,5 11,8 14,7 17 9 21 12 NW 1028,4 45 0 0,0
20.10.2018 23:00:00 12,2 8,9 11,7 11,7 11,9 14,7 16 9 29 15 NW 1027,9 46 0 0,0
20.10.2018 22:00:00 12,3 9,3 11,7 11,7 12,0 14,7 23 12 34 18 NW 1028,0 43 0 0,0
20.10.2018 21:00:00 12,4 9,0 11,4 11,8 12,0 14,7 27 15 35 19 WNW 1028,1 43 0 0,0
20.10.2018 20:00:00 12,7 9,5 11,7 12,2 12,1 14,7 27 15 33 18 WNW 1028,0 44 0 0,0
20.10.2018 19:00:00 12,7 9,4 11,9 12,3 12,2 14,7 14 8 18 10 NW 1027,5 51 0 0,0
20.10.2018 18:00:00 12,6 9,2 11,3 12,5 12,2 14,7 15 8 18 10 WNW 1027,4 56 30 0,0
20.10.2018 17:00:00 12,9 10,0 12,6 13,3 12,2 14,7 15 8 21 11 WNW 1027,3 46 60 0,0
20.10.2018 16:00:00 13,1 9,7 13,3 13,7 12,1 14,7 17 9 26 14 WNW 1027,2 38 18 0,0
20.10.2018 15:00:00 12,8 10,4 12,8 14,2 11,8 14,7 21 11 29 15 WNW 1027,3 29 17 0,0
20.10.2018 14:00:00 13,4 10,2 14,5 14,5 11,6 14,7 25 14 35 19 W 1027,1 21 50 0,0
20.10.2018 13:00:00 13,0 10,0 14,4 13,3 11,4 14,8 30 16 42 23 W 1027,2 18 31 0,0
20.10.2018 12:00:00 12,2 10,0 12,2 12,0 11,4 14,8 35 19 45 24 W 1027,1 24 0 0,1
20.10.2018 11:00:00 11,6 9,1 12,0 11,9 11,3 14,8 35 19 46 25 W 1026,7 30 0 0,0
20.10.2018 10:00:00 11,3 8,7 11,5 11,5 11,3 14,8 35 19 45 24 WSW 1026,5 25 0 0,0
20.10.2018 09:00:00 11,3 8,3 11,1 11,1 11,3 14,8 36 19 55 30 WSW 1026,4 33 0 0,0
20.10.2018 08:00:00 11,3 8,1 10,4 11,1 11,3 14,8 36 19 50 27 W 1026,3 41 0 0,0
20.10.2018 07:00:00 10,9 6,9 10,5 10,9 11,4 14,8 24 13 34 18 WSW 1026,2 51 0 0,0
20.10.2018 06:00:00 11,0 6,9 10,3 10,6 11,5 14,8 22 12 27 15 WSW 1026,0 55 0 0,0
20.10.2018 05:00:00 11,1 4,8 10,2 10,8 11,5 14,8 18 10 27 14 WSW 1025,8 70 0 0,0
20.10.2018 04:00:00 11,2 5,7 10,3 11,0 11,6 14,8 23 12 28 15 W 1025,9 70 0 0,0
20.10.2018 03:00:00 11,7 3,7 11,2 11,3 11,6 14,8 19 10 32 17 WNW 1026,2 70 0 0,0
20.10.2018 02:00:00 11,8 4,6 11,4 11,4 11,7 14,8 28 15 34 19 WNW 1026,1 70 0 0,0
20.10.2018 01:00:00 11,8 5,6 11,4 11,3 11,7 14,8 24 13 32 18 W 1026,0 70 0 0,0
20.10.2018 00:00:00 11,6 5,7 11,0 11,2 11,8 14,8 18 10 23 13 W 1026,0 69 0 0,0
19.10.2018 23:00:00 10,1 5,6 9,2 11,0 11,9 14,8 7 4 11 6 SW 1026,0 70 0 0,0
19.10.2018 22:00:00 9,5 5,2 8,5 10,8 12,1 14,8 8 4 9 5 SW 1026,2 70 0 0,0
19.10.2018 21:00:00 8,2 4,3 5,5 10,7 12,3 14,9 2 1 12 7 WNW 1026,2 70 0 0,0
19.10.2018 20:00:00 11,0 5,9 9,4 11,5 12,5 14,9 11 6 17 9 W 1025,8 57 0 0,0
19.10.2018 19:00:00 11,0 5,7 9,7 12,0 12,6 14,9 14 7 18 10 WNW 1025,6 70 0 0,0
19.10.2018 18:00:00 10,9 6,0 9,9 12,6 12,7 14,9 14 8 18 10 W 1025,3 60 27 0,0
19.10.2018 17:00:00 11,5 5,7 11,2 13,6 12,7 14,9 14 7 19 11 WNW 1025,3 58 44 0,0
19.10.2018 16:00:00 11,7 5,7 12,7 14,7 12,5 14,9 15 8 19 11 WNW 1025,6 65 32 0,0
19.10.2018 15:00:00 11,8 6,3 13,0 15,4 12,2 14,9 16 9 22 12 WNW 1026,2 41 53 0,0
19.10.2018 14:00:00 12,4 6,6 14,8 15,4 11,9 14,9 16 9 22 12 WNW 1026,5 33 53 0,0
19.10.2018 13:00:00 11,9 7,0 14,0 14,2 11,6 14,9 16 9 22 12 NW 1026,6 44 49 0,0
19.10.2018 12:00:00 11,7 7,0 13,5 13,5 11,4 14,9 13 7 20 11 NW 1026,6 35 60 0,0
19.10.2018 11:00:00 11,2 6,8 12,2 11,8 11,3 14,9 16 8 19 11 NW 1026,6 29 58 0,0
19.10.2018 10:00:00 10,9 7,5 11,2 10,7 11,3 14,9 16 8 23 12 NW 1026,3 32 46 0,0
19.10.2018 09:00:00 10,5 6,9 9,7 9,9 11,4 14,9 18 10 22 12 NW 1026,2 58 4 0,0
19.10.2018 08:00:00 10,2 6,8 8,7 9,7 11,6 14,9 17 9 21 12 NW 1025,8 55 0 0,0
19.10.2018 07:00:00 10,0 6,4 8,0 9,8 11,7 14,9 15 8 20 11 NNW 1025,6 53 0 0,0
19.10.2018 06:00:00 10,1 6,8 8,7 10,0 11,9 14,9 16 9 20 11 NNW 1025,5 59 0 0,0
19.10.2018 05:00:00 10,1 7,2 8,5 10,1 12,0 14,9 16 8 22 12 NNW 1025,6 49 0 0,0
19.10.2018 04:00:00 10,1 7,2 8,4 10,4 12,2 14,9 16 9 21 11 NNW 1025,6 67 0 0,0
19.10.2018 03:00:00 10,3 6,6 8,4 10,6 12,4 14,9 16 9 24 13 N 1025,7 55 0 0,0
19.10.2018 02:00:00 10,6 7,0 8,9 10,9 12,5 14,9 19 11 27 15 N 1025,9 47 0 0,0
19.10.2018 01:00:00 10,9 6,7 9,3 11,1 12,7 14,9 21 11 30 16 N 1026,0 47 0 0,0
19.10.2018 00:00:00 11,2 6,4 9,7 11,4 12,9 14,9 23 12 30 16 N 1026,1 50 0 0,0
18.10.2018 23:00:00 11,5 5,8 10,0 11,7 13,1 14,9 26 14 32 17 N 1026,0 67 0 0,0
18.10.2018 22:00:00 12,0 6,7 10,3 11,9 13,3 14,9 19 10 24 13 NNW 1025,7 61 0 0,0
18.10.2018 21:00:00 12,3 6,1 10,6 12,1 13,5 14,9 20 11 29 16 NNW 1025,2 70 0 0,0
18.10.2018 20:00:00 12,4 6,1 10,7 12,5 13,7 14,9 23 12 29 16 N 1025,0 65 0 0,0
18.10.2018 19:00:00 12,3 6,7 10,7 13,0 13,9 14,9 22 12 29 16 N 1024,7 70 0 0,0
18.10.2018 18:00:00 12,5 6,5 11,1 13,9 14,0 14,9 24 13 34 18 N 1024,1 70 43 0,0
18.10.2018 17:00:00 13,1 6,5 12,9 14,8 14,0 14,9 25 14 34 18 N 1023,9 29 60 0,0
18.10.2018 16:00:00 13,7 6,6 14,0 15,5 14,0 14,9 25 14 36 19 N 1023,7 17 60 0,0
18.10.2018 15:00:00 14,0 6,8 15,1 16,1 13,8 14,9 27 14 41 22 N 1023,3 18 60 0,0
18.10.2018 14:00:00 14,0 7,7 15,4 16,2 13,6 14,9 32 17 41 22 N 1023,4 17 60 0,0
18.10.2018 13:00:00 13,5 9,1 14,7 15,4 13,5 14,9 31 17 40 22 N 1023,3 28 15 0,0
18.10.2018 12:00:00 13,2 10,0 13,9 14,8 13,5 14,9 29 16 39 21 N 1023,0 37 0 0,0
18.10.2018 11:00:00 12,8 11,8 12,8 14,4 13,5 14,9 28 15 42 23 N 1022,4 8 11 0,0
18.10.2018 10:00:00 13,4 12,1 13,1 14,1 13,5 14,9 18 10 25 13 NNW 1021,8 6 0 0,0
18.10.2018 09:00:00 13,4 12,0 12,8 13,7 13,6 14,9 19 11 33 18 NNW 1021,3 7 0 0,0
18.10.2018 08:00:00 13,4 11,8 12,8 13,8 13,6 14,8 30 16 36 20 NW 1020,7 8 0 0,0
18.10.2018 07:00:00 13,5 12,5 13,1 14,0 13,7 14,8 29 16 34 19 NW 1020,3 6 0 0,0
18.10.2018 06:00:00 13,6 13,5 13,4 14,1 13,7 14,8 16 9 25 13 NW 1020,0 3,9 0 0,0
18.10.2018 05:00:00 13,3 13,3 13,2 14,1 13,8 14,8 18 10 27 15 NW 1019,9 1,6 0 0,0
18.10.2018 04:00:00 13,2 13,2 13,2 14,1 13,8 14,8 23 12 30 16 NW 1019,9 0,9 0 0,0
18.10.2018 03:00:00 13,1 13,1 13,0 14,1 13,9 14,8 23 12 28 15 WNW 1019,9 0,2 0 0,0
18.10.2018 02:00:00 13,2 13,1 13,2 14,1 14,0 14,8 24 13 29 15 WNW 1019,8 0,1 0 0,0
18.10.2018 01:00:00 14,1 13,5 13,7 13,9 14,1 14,8 22 12 26 14 NW 1019,7 1,6 0 0,0
18.10.2018 00:00:00 14,4 13,6 13,2 13,8 14,3 14,8 13 7 16 9 W 1019,7 2,0 0 0,0

tt = Température de l'air
td = dewpoint
tt 5cm = Température de l'air 5cm
tt -5cm = Température de l'air -5cm
tt -20cm = Température de l'air -20cm
tt -100cm = Température de l'air -100cm
ff = Vitesse du vent
fx = gusts
dd = Direction du vent
ppp = reduced air pressure
vv = visibility
sd = Ensoleillement
rr = Quantités de précipitations

stations d'obs. à proximité